Pittsfield, MA

12:54 PM EST on November 22, 2019 (GMT -0500)
Pittsfield Municipal

Weather History for KPSF - October, 2019

Change the Weather History Date:

Monday, October 21, 2019

  Actual Average Record
Temperature  
Mean Temperature 52 °F 46 °F  
Max Temperature 68 °F 56 °F 73 °F (2017)
Min Temperature 35 °F 36 °F 20 °F (1952)
Degree Days  
Heating Degree Days 14 19  
Month to date heating degree days 295 336  
Since 1 July heating degree days 477 628  
Cooling Degree Days 0 0  
Month to date cooling degree days 0 0  
Year to date cooling degree days 416 289  
Growing Degree Days 2 (Base 50)    
Moisture  
Dew Point 40 °F    
Average Humidity 88    
Maximum Humidity 100    
Minimum Humidity 45    
Precipitation  
Precipitation 0.00 in 0.16 in 1.11 in (1939)
Month to date precipitation 6.22 3.53  
Year to date precipitation 37.39 37.27  
Sea Level Pressure  
Sea Level Pressure 30.05 in    
Wind  
Wind Speed 1 mph ()    
Max Wind Speed 9 mph    
Max Gust Speed 13 mph    
Visibility 3.3 miles    
Events Fog , Snow    
T = Trace of Precipitation, MM = Missing Value Source: Averaged Metar Reports

Daily Weather History Graph

Daily Weather History Graph

Search for Another Location

Airport or City:

Astronomy

Oct. 21, 2019 Rise Set
Actual Time 7:12 AM EDT 6:02 PM EDT
Civil Twilight 6:44 AM EDT 6:30 PM EDT
Nautical Twilight 6:11 AM EDT 7:03 PM EDT
Astronomical Twilight 5:38 AM EDT 7:35 PM EDT
Moon No Moon Rise 2:33 PM EDT (10/21)
Length of Visible Light 11h 46m
Length of Day
10h 49m
Waning Gibbous, 48% of the Moon is Illuminated
Oct 21
Waning Gibbous
Oct 27
New
Nov 4
First Quarter
Nov 12
Full
Nov 19
Last Quarter

Hourly Weather History & Observations

Time (EDT) Temp. Windchill Dew Point Humidity Pressure Visibility Wind Dir Wind Speed Gust Speed Precip Events Conditions
12:02 AM 45.0 °F - 43.0 °F 93% 30.03 in 0.8 mi Calm Calm - N/A   Mist
12:25 AM 44.1 °F 41.5 °F 42.1 °F 93% 30.03 in 1.5 mi NE 4.6 mph - N/A   Partly Cloudy
12:31 AM 44.1 °F 42.5 °F 42.1 °F 93% 30.02 in 0.8 mi ENE 3.5 mph - N/A   Mist
12:54 AM 42.1 °F - 41.0 °F 96% 30.01 in 0.5 mi Calm Calm - N/A Fog Fog
1:02 AM 44.1 °F - 42.1 °F 93% 30.03 in 0.2 mi Calm Calm - N/A Fog Fog
1:10 AM 43.0 °F - 41.0 °F 93% 30.03 in 0.8 mi Calm Calm - N/A   Mist
1:14 AM 43.0 °F - 41.0 °F 93% 30.04 in 1.2 mi Calm Calm - N/A   Scattered Clouds
1:24 AM 42.1 °F - 41.0 °F 96% 30.04 in 2.5 mi Calm Calm - N/A   Partly Cloudy
1:30 AM 41.0 °F - 39.9 °F 96% 30.04 in 1.0 mi Calm Calm - N/A   Mist
1:36 AM 42.1 °F - 39.9 °F 92% 30.04 in 0.2 mi Calm Calm - N/A Fog Fog
1:47 AM 42.1 °F - 39.9 °F 92% 30.03 in 0.8 mi Calm Calm - N/A   Mist
1:54 AM 41.0 °F - 39.9 °F 96% 30.01 in 0.5 mi Calm Calm - N/A Fog Fog
2:39 AM 42.1 °F - 39.9 °F 92% 30.03 in 1.2 mi Calm Calm - N/A   Scattered Clouds
2:44 AM 42.1 °F - 39.9 °F 92% 30.03 in 0.8 mi Calm Calm - N/A   Mist
2:54 AM 42.1 °F - 39.9 °F 92% 30.02 in 0.5 mi Calm Calm - N/A Fog Fog
2:58 AM 42.1 °F - 39.9 °F 92% 30.03 in 1.8 mi Calm Calm - N/A   Partly Cloudy
3:00 AM 42.1 °F - 39.9 °F 92% 30.03 in 4.0 mi Calm Calm - N/A   Partly Cloudy
3:51 AM 41.0 °F - 39.2 °F 93% 30.03 in 1.8 mi Calm Calm - N/A   Clear
3:54 AM 41.0 °F 39.0 °F 39.0 °F 93% 30.02 in 1.0 mi SE 3.5 mph - N/A   Clear
4:01 AM 41.0 °F - 39.0 °F 93% 30.03 in 0.8 mi Calm Calm - N/A   Clear
4:09 AM 39.0 °F - 37.9 °F 96% 30.03 in 0.5 mi Calm Calm - N/A Fog Fog
4:29 AM 41.0 °F - 39.9 °F 96% 30.04 in 1.2 mi Calm Calm - N/A   Partly Cloudy
4:33 AM 42.1 °F - 39.9 °F 92% 30.04 in 3.0 mi Calm Calm - N/A   Partly Cloudy
4:36 AM 41.0 °F - 39.0 °F 93% 30.04 in 1.8 mi Calm Calm - N/A   Scattered Clouds
4:39 AM 39.9 °F - 39.0 °F 97% 30.04 in 0.8 mi Calm Calm - N/A   Mist
4:50 AM 39.2 °F - 37.4 °F 93% 30.04 in 0.5 mi Calm Calm - N/A Fog Fog
4:54 AM 39.9 °F - 37.9 °F 93% 30.03 in 0.8 mi Calm Calm - N/A   Mist
5:03 AM 39.9 °F - 37.9 °F 93% 30.04 in 1.0 mi Calm Calm - N/A   Mist
5:05 AM 39.0 °F - 37.9 °F 96% 30.04 in 0.5 mi Calm Calm - N/A Fog Fog
5:20 AM 39.0 °F - 37.0 °F 93% 30.04 in 2.0 mi Calm Calm - N/A   Mist
5:30 AM 39.0 °F - 37.0 °F 93% 30.04 in 0.8 mi Calm Calm - N/A   Mist
5:36 AM 37.9 °F - 37.0 °F 97% 30.05 in 0.5 mi Calm Calm - N/A Fog Fog
5:54 AM 37.0 °F - 35.1 °F 93% 30.05 in 0.5 mi Calm Calm - N/A Fog Fog
6:02 AM 37.0 °F - 35.1 °F 93% 30.05 in 0.2 mi Calm Calm - N/A Fog Fog
6:21 AM 37.9 °F - 36.0 °F 93% 30.06 in 0.8 mi Calm Calm - N/A   Mist
6:40 AM 37.0 °F 34.5 °F 35.1 °F 93% 30.07 in 0.2 mi NE 3.5 mph - 0.00 in Fog , Snow Light Snow
6:54 AM 37.0 °F - 35.1 °F 93% 30.07 in 0.2 mi Calm Calm - 0.00 in Fog Fog
7:54 AM 36.0 °F - 35.1 °F 97% 30.08 in 0.2 mi Calm Calm - N/A Fog Fog
8:20 AM 39.0 °F - 37.9 °F 96% 30.08 in 0.2 mi Calm Calm - N/A Fog Fog
8:51 AM 41.0 °F - 39.2 °F 93% 30.10 in 0.2 mi Calm Calm - N/A Fog Fog
8:54 AM 42.1 °F - 41.0 °F 96% 30.09 in 0.2 mi Calm Calm - N/A Fog Fog
9:05 AM 42.1 °F - 41.0 °F 96% 30.10 in 1.2 mi Calm Calm - N/A   Overcast
9:22 AM 43.0 °F - 41.0 °F 93% 30.09 in 0.8 mi Calm Calm - N/A   Overcast
9:37 AM 44.1 °F - 43.0 °F 96% 30.10 in 2.0 mi Calm Calm - N/A   Mostly Cloudy
9:54 AM 46.0 °F - 44.1 °F 93% 30.10 in 10.0 mi Calm Calm - N/A   Partly Cloudy
10:54 AM 55.0 °F - 45.0 °F 69% 30.08 in 10.0 mi ENE 5.8 mph - N/A   Clear
11:54 AM 57.9 °F - 45.0 °F 62% 30.07 in 10.0 mi Variable 3.5 mph - N/A   Clear
12:54 PM 63.0 °F - 45.0 °F 52% 30.06 in 10.0 mi Variable 3.5 mph - N/A   Clear
1:54 PM 66.0 °F - 45.0 °F 47% 30.03 in 10.0 mi NNE 6.9 mph - N/A   Clear
2:54 PM 66.9 °F - 45.0 °F 45% 30.02 in 10.0 mi NE 6.9 mph - N/A   Clear
3:54 PM 66.9 °F - 45.0 °F 45% 30.03 in 10.0 mi Calm Calm - N/A   Clear
4:54 PM 62.1 °F - 46.0 °F 56% 30.05 in 10.0 mi SW 5.8 mph - N/A   Clear
5:54 PM 57.9 °F - 46.0 °F 65% 30.08 in 10.0 mi Calm Calm - N/A   Clear
6:54 PM 53.1 °F - 46.0 °F 77% 30.10 in 10.0 mi Calm Calm - N/A   Clear
7:54 PM 48.9 °F - 44.1 °F 83% 30.12 in 10.0 mi Calm Calm - N/A   Clear
8:54 PM 46.0 °F 44.8 °F 43.0 °F 89% 30.13 in 10.0 mi NE 3.5 mph - N/A   Clear
9:54 PM 46.0 °F - 43.0 °F 89% 30.12 in 10.0 mi Calm Calm - N/A   Clear
10:54 PM 46.0 °F - 42.1 °F 86% 30.10 in 10.0 mi Calm Calm - N/A   Clear
11:54 PM 46.0 °F - 42.1 °F 86% 30.11 in 9.0 mi Calm Calm - N/A   Clear